CEB782 RPMO-RPLL

Flight info

Callsign CEB782
Flight time N/A
Altitude 34000
Route ALDIN B472 IBAGO IBAGO3R
Aircraft A20N/M-SDE2E3FGHIRWXY/LB1

Departure

Time N/A
Airport Labo Airport (RPMO)

Arrival

Time 2026-05-01 08:25
Airport Ninoy Aquino International Airport (RPLL)
Time Latitude Longitude Altitude Speed Heading
2026-05-01 07:23 10.58706 122.60959 33827 ft 432 kts 335°
2026-05-01 07:24 10.66877 122.57095 33829 ft 432 kts 335°
2026-05-01 07:24 10.72346 122.54508 33829 ft 431 kts 335°
2026-05-01 07:25 10.77808 122.51924 33832 ft 431 kts 335°
2026-05-01 07:25 10.83255 122.49345 33831 ft 430 kts 335°
2026-05-01 07:26 10.88764 122.46912 33841 ft 431 kts 337°
2026-05-01 07:26 10.94306 122.44547 33852 ft 431 kts 337°
2026-05-01 07:27 10.99844 122.42165 33868 ft 431 kts 337°
2026-05-01 07:27 11.05369 122.39781 33881 ft 431 kts 337°
2026-05-01 07:28 11.10894 122.37394 33889 ft 430 kts 337°
2026-05-01 07:28 11.16428 122.35001 33897 ft 430 kts 337°
2026-05-01 07:29 11.21967 122.32602 33900 ft 430 kts 336°
2026-05-01 07:29 11.27498 122.30205 33904 ft 431 kts 336°
2026-05-01 07:30 11.33035 122.27806 33908 ft 431 kts 336°
2026-05-01 07:30 11.38572 122.25406 33907 ft 431 kts 336°
2026-05-01 07:31 11.44111 122.23003 33901 ft 431 kts 336°
2026-05-01 07:32 11.57936 122.17003 33872 ft 431 kts 336°
2026-05-01 07:33 11.66229 122.13402 33861 ft 432 kts 336°
2026-05-01 07:33 11.74542 122.09789 33853 ft 432 kts 336°
2026-05-01 07:34 11.82856 122.06175 33845 ft 431 kts 336°
2026-05-01 07:35 11.88387 122.03767 33843 ft 431 kts 336°
2026-05-01 07:35 11.93912 122.01363 33844 ft 431 kts 336°
2026-05-01 07:36 11.99473 121.98940 33841 ft 432 kts 336°
2026-05-01 07:36 12.04997 121.96533 33843 ft 432 kts 336°
2026-05-01 07:37 12.13330 121.92901 33843 ft 431 kts 336°
2026-05-01 07:37 12.18861 121.90489 33848 ft 431 kts 336°
2026-05-01 07:38 12.24408 121.88068 33855 ft 431 kts 336°
2026-05-01 07:39 12.32701 121.84448 33860 ft 430 kts 336°
2026-05-01 07:39 12.40999 121.80819 33859 ft 431 kts 335°
2026-05-01 07:40 12.46529 121.78397 33856 ft 431 kts 335°
2026-05-01 07:40 12.52046 121.75980 33850 ft 430 kts 335°
2026-05-01 07:41 12.57550 121.73568 33853 ft 430 kts 335°
2026-05-01 07:42 12.65819 121.69943 33855 ft 430 kts 335°
2026-05-01 07:42 12.71323 121.67530 33858 ft 429 kts 335°
2026-05-01 07:43 12.76860 121.65099 33860 ft 429 kts 335°
2026-05-01 07:43 12.85087 121.61486 33859 ft 429 kts 335°
2026-05-01 07:44 12.96103 121.56645 33863 ft 428 kts 335°
2026-05-01 07:45 13.01602 121.54227 33858 ft 428 kts 335°
2026-05-01 07:45 13.07067 121.51822 33853 ft 427 kts 335°
2026-05-01 07:46 13.12556 121.49405 33854 ft 428 kts 335°
2026-05-01 07:47 13.20779 121.45783 33857 ft 427 kts 335°
2026-05-01 07:47 13.26249 121.43373 33856 ft 427 kts 335°
2026-05-01 07:48 13.34455 121.39753 33858 ft 427 kts 335°
2026-05-01 07:48 13.39931 121.37338 33859 ft 427 kts 335°
2026-05-01 07:49 13.48130 121.33719 33858 ft 426 kts 335°
2026-05-01 07:50 13.53519 121.31200 33851 ft 424 kts 326°
2026-05-01 07:50 13.57819 121.27068 33866 ft 422 kts 309°
2026-05-01 07:50 13.59731 121.24804 33867 ft 422 kts 308°
2026-05-01 07:51 13.63578 121.20245 33875 ft 422 kts 309°
2026-05-01 07:52 13.69403 121.13412 33871 ft 422 kts 309°
2026-05-01 07:52 13.73265 121.08893 33862 ft 421 kts 309°
2026-05-01 07:53 13.79076 121.02093 33857 ft 421 kts 309°
2026-05-01 07:53 13.83307 120.97957 33819 ft 426 kts 332°
2026-05-01 07:54 13.89138 120.97024 33860 ft 429 kts 360°
2026-05-01 07:55 13.98100 120.96639 33847 ft 428 kts 353°
2026-05-01 07:56 14.12972 120.95060 33856 ft 428 kts 352°
2026-05-01 07:56 14.18722 120.93929 33837 ft 407 kts 331°
2026-05-01 07:57 14.21154 120.92530 33860 ft 400 kts 326°
2026-05-01 07:57 14.25908 120.89541 33852 ft 388 kts 326°
2026-05-01 07:58 14.30546 120.86770 33854 ft 382 kts 327°
2026-05-01 07:59 14.39973 120.81692 33813 ft 387 kts 349°
2026-05-01 07:59 14.45140 120.82924 33835 ft 395 kts 38°
2026-05-01 08:00 14.46798 120.93088 33844 ft 388 kts 102°
2026-05-01 08:01 14.48974 121.00888 33853 ft 395 kts 45°
2026-05-01 08:01 14.50924 121.02922 33856 ft 396 kts 45°
2026-05-01 08:01 14.52832 121.04961 33631 ft 398 kts 46°
2026-05-01 08:02 14.56673 121.09084 32509 ft 397 kts 46°
2026-05-01 08:02 14.58581 121.11124 32003 ft 397 kts 46°
2026-05-01 08:03 14.62403 121.15234 30989 ft 396 kts 46°
2026-05-01 08:03 14.64319 121.17304 30478 ft 395 kts 45°
2026-05-01 08:03 14.68856 121.20376 29455 ft 390 kts 17°
2026-05-01 08:04 14.74110 121.20454 28453 ft 379 kts 339°
2026-05-01 08:04 14.78152 121.17248 27454 ft 370 kts 300°
2026-05-01 08:05 14.79219 121.12189 26451 ft 365 kts 262°
2026-05-01 08:05 14.78668 121.09659 25960 ft 364 kts 254°
2026-05-01 08:05 14.77927 121.07149 25459 ft 363 kts 252°
2026-05-01 08:06 14.76389 121.02189 24459 ft 362 kts 252°
2026-05-01 08:06 14.74859 120.97252 23463 ft 361 kts 252°
2026-05-01 08:07 14.73362 120.92355 22470 ft 359 kts 252°
2026-05-01 08:07 14.71866 120.87417 21499 ft 358 kts 252°
2026-05-01 08:08 14.71129 120.84985 21030 ft 358 kts 252°
2026-05-01 08:08 14.69623 120.80082 20091 ft 356 kts 248°
2026-05-01 08:09 14.66475 120.76347 19129 ft 350 kts 205°
2026-05-01 08:09 14.64155 120.75642 18665 ft 345 kts 184°
2026-05-01 08:09 14.61772 120.75538 18195 ft 344 kts 178°
2026-05-01 08:10 14.56985 120.75588 17248 ft 343 kts 177°
2026-05-01 08:10 14.52186 120.75651 16292 ft 341 kts 177°
2026-05-01 08:11 14.47446 120.75753 15351 ft 339 kts 169°
2026-05-01 08:11 14.43523 120.78046 14395 ft 326 kts 124°
2026-05-01 08:12 14.42469 120.82375 13440 ft 310 kts 84°
2026-05-01 08:12 14.42839 120.84491 12962 ft 296 kts 70°
2026-05-01 08:12 14.44511 120.88222 12012 ft 283 kts 63°
2026-05-01 08:13 14.45451 120.89999 11539 ft 285 kts 54°
2026-05-01 08:13 14.46919 120.91354 11065 ft 289 kts 29°
2026-05-01 08:13 14.50904 120.91573 10125 ft 300 kts 345°
2026-05-01 08:14 14.52870 120.90844 9653 ft 293 kts 341°
2026-05-01 08:14 14.54723 120.90080 9186 ft 283 kts 340°
2026-05-01 08:14 14.56532 120.89322 8709 ft 273 kts 340°
2026-05-01 08:14 14.58258 120.88596 8246 ft 265 kts 340°
2026-05-01 08:15 14.59957 120.87878 7799 ft 266 kts 340°
2026-05-01 08:15 14.63381 120.86423 7144 ft 261 kts 336°
2026-05-01 08:15 14.64835 120.85284 6893 ft 266 kts 309°
2026-05-01 08:16 14.65714 120.83583 6674 ft 269 kts 293°
2026-05-01 08:16 14.66370 120.81775 6449 ft 268 kts 291°
2026-05-01 08:16 14.66981 120.79965 6218 ft 268 kts 290°
2026-05-01 08:16 14.67587 120.78155 5983 ft 267 kts 290°
2026-05-01 08:17 14.68079 120.76292 5729 ft 268 kts 274°
2026-05-01 08:17 14.67795 120.74429 5490 ft 267 kts 244°
2026-05-01 08:17 14.66680 120.72922 5262 ft 264 kts 214°
2026-05-01 08:17 14.65017 120.72165 5027 ft 258 kts 186°
2026-05-01 08:18 14.63247 120.72004 4803 ft 256 kts 179°
2026-05-01 08:18 14.59795 120.72589 4330 ft 250 kts 158°
2026-05-01 08:19 14.56494 120.73768 3856 ft 248 kts 157°
2026-05-01 08:19 14.54878 120.74355 3620 ft 247 kts 157°
2026-05-01 08:19 14.53242 120.74947 3383 ft 246 kts 157°
2026-05-01 08:19 14.51634 120.75532 3146 ft 245 kts 157°
2026-05-01 08:20 14.50066 120.76228 2980 ft 240 kts 141°
2026-05-01 08:20 14.48866 120.77404 2970 ft 230 kts 128°
2026-05-01 08:20 14.47869 120.78610 2961 ft 217 kts 127°
2026-05-01 08:20 14.46902 120.79821 2967 ft 216 kts 126°
2026-05-01 08:21 14.45966 120.81034 2829 ft 217 kts 120°
2026-05-01 08:21 14.45460 120.82478 2542 ft 212 kts 98°
2026-05-01 08:21 14.45280 120.83967 2267 ft 211 kts 94°
2026-05-01 08:21 14.45210 120.85451 2024 ft 207 kts 84°
2026-05-01 08:22 14.45450 120.86926 1987 ft 207 kts 75°
2026-05-01 08:22 14.45879 120.88342 1984 ft 207 kts 71°
2026-05-01 08:22 14.46345 120.89743 1977 ft 207 kts 71°
2026-05-01 08:22 14.46821 120.91166 1919 ft 207 kts 72°
2026-05-01 08:23 14.47241 120.92539 1653 ft 197 kts 75°
2026-05-01 08:23 14.47533 120.93885 1372 ft 190 kts 79°
2026-05-01 08:23 14.47777 120.95180 1228 ft 172 kts 80°
2026-05-01 08:23 14.48089 120.96317 1082 ft 157 kts 72°
2026-05-01 08:24 14.48502 120.97357 722 ft 159 kts 70°
2026-05-01 08:24 14.48939 120.98395 433 ft 154 kts 69°
2026-05-01 08:24 14.49422 120.99336 214 ft 143 kts 64°
2026-05-01 08:24 14.49903 121.00214 62 ft 144 kts 64°
2026-05-01 08:25 14.50369 121.01050 38 ft 122 kts 63°
2026-05-01 08:25 14.50741 121.01731 51 ft 93 kts 61°
2026-05-01 08:25 14.50933 121.02075 50 ft 36 kts 58°
2026-05-01 08:25 14.51067 121.02242 55 ft 22 kts 43°
2026-05-01 08:26 14.51166 121.02298 59 ft 12 kts 352°
2026-05-01 08:26 14.51189 121.02245 58 ft 10 kts 237°
2026-05-01 08:26 14.51145 121.02177 55 ft 13 kts 239°
2026-05-01 08:26 14.51099 121.02094 53 ft 13 kts 240°
2026-05-01 08:27 14.51051 121.02009 51 ft 14 kts 239°
2026-05-01 08:27 14.50998 121.01915 50 ft 14 kts 240°
2026-05-01 08:27 14.50948 121.01824 51 ft 13 kts 239°
2026-05-01 08:27 14.50905 121.01749 53 ft 11 kts 240°
2026-05-01 08:28 14.50889 121.01685 56 ft 6 kts 285°
2026-05-01 08:28 14.50909 121.01639 58 ft 7 kts 282°
2026-05-01 08:28 14.50899 121.01585 60 ft 7 kts 242°
2026-05-01 08:28 14.50871 121.01534 61 ft 7 kts 239°
2026-05-01 08:29 14.50845 121.01490 60 ft 7 kts 240°
2026-05-01 08:29 14.50824 121.01451 59 ft 5 kts 241°
2026-05-01 08:29 14.50801 121.01408 56 ft 8 kts 241°
2026-05-01 08:29 14.50778 121.01366 54 ft 4 kts 243°
2026-05-01 08:30 14.50771 121.01333 53 ft 5 kts 270°
2026-05-01 08:30 14.50784 121.01304 53 ft 4 kts 313°
2026-05-01 08:30 14.50807 121.01286 54 ft 3 kts 328°
2026-05-01 08:30 14.50823 121.01276 55 ft 1 kts 329°
2026-05-01 08:31 14.50825 121.01275 55 ft 0 kts 329°